Flight Track Log - Related Links

Times and Time Zones

All times are in EDT time to prevent confusion due to time zone crossing. See the N8050J flight status page for this flight to view local times or setup timezone preferences in your user account.

Time Position Orientation Groundspeed Altitude Reporting Facility
EDT Latitude Longitude Course Direction KTS MPH feet Rate Location/Type
Sun 02:12:10 PM 40.3058 -78.8269 147° Southeast 70 81 3,100  Level Cleveland Center
Sun 02:12:47 PM 40.2933 -78.8164 147° Southeast 77 89 3,600 804 Climbing Cleveland Center
Sun 02:13:47 PM 40.2761 -78.7953 137° Southeast 87 100 4,400 744 Climbing Cleveland Center
Sun 02:14:48 PM 40.2592 -78.7739 136° Southeast 89 102 5,100 606 Climbing Cleveland Center
Sun 02:15:36 PM 40.2442 -78.7553 137° Southeast 92 106 5,500 608 Climbing Cleveland Center
Sun 02:16:07 PM 40.2314 -78.7367 132° Southeast 96 110 5,900 725 Climbing Cleveland Center
Sun 02:17:07 PM 40.2186 -78.7125 125° Southeast 111 128 6,600 650 Climbing Cleveland Center
Sun 02:18:07 PM 40.2283 -78.6742 72° East 92 106 7,200 600 Climbing Cleveland Center
Sun 02:19:07 PM 40.2403 -78.6331 69° East 99 114 7,800 600 Climbing Cleveland Center
Sun 02:20:07 PM 40.2500 -78.5919 73° East 110 127 8,400 600 Climbing Cleveland Center
Sun 02:21:07 PM 40.2597 -78.5508 73° East 110 127 9,000 250 Climbing Cleveland Center
Sun 02:22:07 PM 40.2692 -78.5014 76° East 120 138 8,900 -50 Descending Cleveland Center
Sun 02:23:07 PM 40.2744 -78.4469 83° East 135 155 8,900  Level Cleveland Center
Sun 02:24:07 PM 40.2817 -78.3922 80° East 146 168 8,900  Level Cleveland Center
Sun 02:25:07 PM 40.2869 -78.3350 83° East 146 168 8,900 36 Level Cleveland Center
Sun 02:26:55 PM 40.2964 -78.2364 83° East 162 186 9,000 36 Climbing New York Center
Sun 02:27:55 PM 40.3022 -78.1797 82° East 156 180 9,000  Level New York Center
Sun 02:28:53 PM 40.3078 -78.1233 83° East 156 180 9,000  Level New York Center
Sun 02:29:53 PM 40.3133 -78.0667 83° East 156 180 9,000  Level New York Center
Sun 02:30:54 PM 40.3167 -78.0097 86° East 156 180 9,000  Level New York Center
Sun 02:31:55 PM 40.3222 -77.9533 83° East 156 180 9,000  Level New York Center
Sun 02:32:53 PM 40.3300 -77.8967 80° East 156 180 9,000  Level New York Center
Sun 02:33:54 PM 40.3333 -77.8400 86° East 156 180 9,000  Level New York Center
Sun 02:34:53 PM 40.3389 -77.7806 83° East 161 185 9,000  Level New York Center
Sun 02:35:53 PM 40.3464 -77.7242 80° East 161 185 9,000  Level New York Center
Sun 02:36:54 PM 40.3497 -77.6672 86° East 161 185 9,000  Level New York Center
Sun 02:37:55 PM 40.3533 -77.6075 85° East 161 185 9,000  Level New York Center
Sun 02:38:55 PM 40.3592 -77.5428 83° East 161 185 9,000  Level New York Center
Sun 02:39:53 PM 40.3619 -77.4914 86° East 161 185 9,000  Level New York Center
Sun 02:40:54 PM 40.3617 -77.4258 90° East 155 178 9,000  Level New York Center
Sun 02:41:54 PM 40.3603 -77.3739 92° East 155 178 9,000  Level New York Center
Sun 02:42:55 PM 40.3575 -77.3111 93° East 161 185 9,000  Level New York Center
Sun 02:43:54 PM 40.3561 -77.2592 92° East 161 185 9,000  Level New York Center
Sun 02:44:54 PM 40.3533 -77.1961 93° East 161 185 9,000  Level New York Center
Sun 02:45:54 PM 40.3519 -77.1444 92° East 161 185 9,000  Level New York Center
Sun 02:46:55 PM 40.3511 -77.0817 91° East 161 185 9,000  Level New York Center
Sun 02:47:56 PM 40.3497 -77.0297 92° East 161 185 9,000  Level New York Center
Sun 02:48:53 PM 40.3469 -76.9667 93° East 161 185 9,000  Level New York Center
Sun 02:49:54 PM 40.3458 -76.9094 91° East 166 191 9,000  Level New York Center
Sun 02:50:55 PM 40.3425 -76.8492 94° East 159 183 9,000  Level New York Center
Sun 02:51:53 PM 40.3478 -76.7897 83° East 159 183 9,000  Level New York Center
Sun 02:52:55 PM 40.3547 -76.7331 81° East 159 183 9,000  Level New York Center
Sun 02:53:55 PM 40.3614 -76.6819 80° East 159 183 9,000  Level New York Center
Sun 02:54:53 PM 40.3664 -76.6278 83° East 159 183 9,000  Level New York Center
Sun 02:55:53 PM 40.3758 -76.5633 79° East 159 183 9,000  Level New York Center
Sun 02:56:55 PM 40.3825 -76.5067 81° East 159 183 9,000  Level New York Center
Sun 02:57:55 PM 40.3897 -76.4472 81° East 159 183 9,000  Level New York Center
Sun 02:58:53 PM 40.3964 -76.3961 80° East 159 183 9,000  Level New York Center
Sun 02:59:53 PM 40.4031 -76.3394 81° East 159 183 9,000 -149 Level New York Center
Sun 03:00:54 PM 40.4103 -76.2772 81° East 159 183 8,700 -347 Descending New York Center
Sun 03:01:54 PM 40.4192 -76.2181 79° East 159 183 8,300 -446 Descending New York Center
Sun 03:02:55 PM 40.4261 -76.1583 81° East 159 183 7,800 -496 Descending New York Center
Sun 03:03:55 PM 40.4331 -76.0989 81° East 159 183 7,300 -458 Descending New York Center
Sun 03:04:53 PM 40.4397 -76.0422 81° East 159 183 6,900 -504 Descending New York Center
Sun 03:05:54 PM 40.4464 -75.9856 81° East 159 183 6,300 -446 Descending New York Center
Sun 03:06:54 PM 40.4531 -75.9286 81° East 159 183 6,000 -149 Descending New York Center
Sun 03:07:55 PM 40.4575 -75.8744 84° East 153 176 6,000  Level New York Center
Sun 03:08:53 PM 40.4639 -75.8258 80° East 153 176 6,000  Level New York Center
Sun 03:09:54 PM 40.4703 -75.7717 81° East 148 170 6,000  Level New York Center
Sun 03:10:55 PM 40.4769 -75.7122 82° East 148 170 6,000  Level New York Center
Sun 03:11:55 PM 40.4833 -75.6581 81° East 148 170 6,000  Level New York Center
Sun 03:12:53 PM 40.4894 -75.6094 81° East 143 165 6,000  Level New York Center
Sun 03:13:54 PM 40.4961 -75.5497 82° East 143 165 6,000 -174 Level New York Center
Sun 03:15:00 PM 40.5006 -75.4929 84° East  Level FlightAware Approximate
Sun 03:18:38 PM 40.5167 -75.2833 66° East 152 175 5,000  Level New York TRACON
Sun 03:19:38 PM 40.5333 -75.2333 66° East 148 170 5,000  Level New York TRACON
Sun 03:20:38 PM 40.5333 -75.1833 90° East 144 166 5,000 -50 Level New York TRACON
Sun 03:21:38 PM 40.5333 -75.1333 90° East 139 160 4,900 -200 Descending New York TRACON
Sun 03:22:00 PM 40.5285 -75.1308 84° East  Level FlightAware Approximate
Sun 03:22:38 PM 40.5167 -75.0833 114° Southeast 144 166 4,600  Level New York TRACON
Sun 03:23:00 PM 40.5324 -75.0790 84° East  Level FlightAware Approximate
Sun 03:23:32 PM 40.5000 -75.0333 114° Southeast 146 168 4,400  Level New York TRACON
Sun 03:24:00 PM 40.5454 -75.0304 66° East  Level FlightAware Approximate
Sun 03:24:32 PM 40.5000 -74.9833 90° East 141 162 3,900  Level New York TRACON
Sun 03:25:32 PM 40.4833 -74.9333 114° Southeast 142 163 3,500 -200 Descending New York TRACON
Sun 03:26:32 PM 40.4667 -74.9000 123° Southeast 135 155 3,500  Level New York TRACON
Sun 03:28:00 PM 40.4467 -74.8285 110° East  Level Estimated
Sun 03:35:00 PM 40.3991 -74.6590 110° East  Level Estimated
Sun 03:36:00 PM 40.3991 -74.6590 North  Level Estimated
Sun 03:37:00 PM 40.3991 -74.6590 North  Level Estimated
Sun 03:38:00 PM 40.3991 -74.6590 North  Level Estimated

Login

Don't have an account? Register now (free) for customized features, flight alerts, and more!